Home   Weather   Feldkirch   Past weeks

Flag for Austria Past Weather in Feldkirch, Vorarlberg, Austria — Yesterday and Last 2 Weeks

Now
37 °F

Chilly.


Feels Like: 37 °F
Forecast: 27 / 44 °F
Wind: 2 mph from East

Location: Feldkirch

Current Time: Feb 24, 2017 at 7:02:30 pm

Latest Report: Feb 24, 2017 at 6:00 pm


Visibility: N/A

Pressure: 30.05 "Hg

Humidity: 90%

Dew Point: 34 °F

Location of FeldkirchLocation

Past Weather in Feldkirch — Graph

°F

Feldkirch Temperature Yesterday

Maximum temperature yesterday: 65 °F (at 4:00 pm)
Minimum temperature yesterday: 36 °F (at 6:00 am)
Average temperature yesterday: 50 °F

High & Low Weather Summary for the Past Weeks

 TemperatureHumidityPressure
High65 °F (Feb 23, 4:00 pm)100% (Feb 11, 7:00 am)30.67 "Hg (Feb 11, 7:00 am)
Low23 °F (Feb 15, 7:00 am)28% (Feb 23, 5:00 pm)29.56 "Hg (Feb 23, 5:00 pm)
Average39 °F80%30.25 "Hg
* Reported Feb 9 5:00 pm — Feb 24 5:00 pm, Feldkirch, Weather by CustomWeather, © 2017

Note: Actual official high and low records may vary slightly from our data, if they occured in-between our weather recording intervals... More about our weather records

Advertising

Feldkirch Weather History for the Previous 24 Hours

Scroll right to see more
 ConditionsComfort  
Time TempWeatherWind HumidityBarometerVisibility
5:00 pm
Fri, Feb 24
38 °FFog.7 mph82%30.02 "HgN/A
4:00 pm44 °FQuite cool.2 mph64%29.97 "HgN/A
3:00 pm44 °FQuite cool.2 mph57%29.96 "HgN/A
2:00 pm44 °FQuite cool.2 mph66%29.96 "HgN/A
1:00 pm43 °FQuite cool.2 mph68%29.96 "HgN/A
12:00 pm42 °FQuite cool.2 mph71%29.99 "HgN/A
11:00 am41 °FQuite cool.1 mph76%29.99 "HgN/A
10:00 am40 °FLow clouds.5 mph76%29.97 "Hg3 mi
9:00 am40 °FChilly.2 mph83%29.95 "HgN/A
8:00 am40 °FQuite cool.1 mph87%29.92 "HgN/A
7:00 am41 °FLight rain. Low clouds.2 mph76%29.90 "Hg9 mi
6:00 am41 °FSprinkles. Overcast.5 mph81%29.87 "HgN/A
5:00 am42 °FQuite cool.2 mph79%29.84 "HgN/A
4:00 am43 °FQuite cool.5 mph79%29.80 "HgN/A
3:00 am49 °FCool.3 mph69%29.72 "HgN/A
2:00 am55 °FCool.1 mph52%29.67 "HgN/A
1:00 am56 °FRefreshingly cool.5 mph50%29.65 "HgN/A
12:00 am55 °FRefreshingly cool.1 mph41%29.65 "HgN/A
11:00 pm
Thu, Feb 23
51 °FCool.1 mph51%29.65 "HgN/A
10:00 pm49 °FCool.2 mph59%29.65 "HgN/A
9:00 pm51 °FCool.No wind48%29.63 "HgN/A
8:00 pm51 °FCool.1 mph49%29.62 "HgN/A
7:00 pm54 °FCool.1 mph43%29.59 "HgN/A
Weather by CustomWeather, © 2017

See weather overviewHow to use our weather pages